COSMOS 2251 DEB, 36453

Orbit data source: Space-Track

COSMOS 2251 DEB, 36453 is space debris in LEO originally from a launch on Wed, 16 Jun 1993 UTC launched from the Plesetsk Missile And Space Complex (PKMTR). The debris from Iridium 33, an American commercial communications satellite, has been tracked extensively since its accidental collision with the defunct Russian satellite Cosmos 2251 in 2009. This event, occurring at high speed in low Earth orbit (LEO), generated thousands of pieces of space debris, significantly increasing the risk of further collisions. The Iridium 33 debris cloud has impacted space traffic management and orbital debris mitigation strategies, making it a subject of ongoing study in space situational awareness.

Loading next visibility...
Identifier
36453, 1993-036BBC
Orbit
LEO
Country
Flag of CISCIS
Related business
Manufacturer
Unknown
Mission
Spacecraft
Bus & Motor
Unknown
Mass
Unknown
Launch date (UTC)
1993-06-16 (33 years ago)
Launch vehicle
Unknown
Launch site
Plesetsk Missile And Space Complex (PKMTR)
Object type
Payload
Rocket body
Debris
Shape & HBR
Unknown shape, 0.1 m
Radar Cross Section
Small (<0.1 m²)

Expand to show TLE details & history
Last TLE update: 2 days ago

TLE from 2 days ago
0 COSMOS 2251 DEB
1 36453U 93036BBC 26047.39447946  .00004773  00000-0  11181-2 0  9992
2 36453  73.9253  27.6639 0072751 276.4102 236.2316 14.53227513854215
Epoch: 2026-02-16T09:28Z
TLE epoch observation values (Epoch: 2026-02-16T09:28:03.025Z)
Latitude
26.90521°
Longitude
-89.10106°
Altitude
747.053 km
Speed
7.468 km/s
True Right ascension
13h 17m 12s
True Declination
26° 45' 59"
Sunlit
Object was in full shadow at epoch
Visualization orbit readout
Latitude
Unknown
Longitude
Unknown
Altitude
Unknown
Speed
Unknown
Apparent Right ascension
Unknown
Apparent Declination
Unknown
Sunlit
N/A
Visualization observer readout
Local Sidereal Time
05:32:48
Azimuth
Unknown
Elevation
Unknown
Doppler factor
Unknown
Orbital elements
Apogee altitude
764.328 km
Perigee altitude
661.154 km
Semi-major axis
7,090.878 km
Eccentricity
0.00728
Inclination
73.9253°
RAAN
27.6639°
Arg. of periapsis
276.4102°
True anomaly
235.54208°
Mean anomaly
236.2316°
Eccentric anomaly
235.88649°
Mean motion
3.63491 °/min
Orbital period
99.04 mins
BSTAR
0.0011181
Loading maneuver chart data...
Computing Atmospheric mass density...

Documentation

Showing up to 5 results
|